Wind_Speed
6 5 6 6 7 9 10 12 14 15 17 18 19 20 20 21 20 20 20 19 19 18 16 15 14 13 13 12 13 14 15 17 19 21 23 24 25 26 25 26 28 28 28
7 6 5 6 7 9 10 12 14 15 16 18 18 19 20 21 20 20 20 20 19 18 17 15 13 12 11 11 11 12 13 15 17 19 21 23 24 25 25 26 27 28 28
7 6 6 6 7 9 11 12 14 15 16 18 18 19 20 20 20 20 19 19 19 18 17 14 13 11 10 9 10 11 11 13 15 17 19 21 22 24 25 26 27 28 28
7 6 6 7 8 9 11 12 14 15 16 17 18 19 20 20 20 20 20 19 19 18 16 15 13 12 10 9 9 10 11 11 13 15 17 19 21 22 23 25 25 27 28
7 7 7 7 8 9 11 12 13 15 16 17 18 19 19 20 20 20 20 19 19 18 16 15 13 12 10 8 8 9 10 11 12 14 16 17 20 21 22 23 25 26 27
8 8 8 8 8 9 11 12 13 14 16 17 18 19 19 19 20 20 20 19 18 18 17 15 13 12 10 9 8 8 9 10 11 12 14 16 18 20 22 22 23 25 27
8 8 8 8 8 9 10 12 13 14 15 16 17 18 19 19 20 20 20 19 18 18 17 15 13 12 10 9 8 7 7 9 9 10 11 14 16 18 21 22 22 24 25
9 8 8 8 9 9 10 11 13 14 15 16 17 18 18 19 19 20 20 20 19 18 17 15 14 12 10 9 8 7 7 7 8 9 10 12 14 16 18 19 21 22 24
9 9 9 9 9 9 10 12 13 14 15 16 17 18 18 18 19 19 20 20 19 19 17 15 14 12 11 10 8 7 6 6 7 8 9 11 12 14 16 18 20 21 22
10 10 9 9 9 9 10 11 13 13 14 15 17 17 17 18 18 19 19 19 19 18 17 16 14 13 12 11 9 8 6 6 6 7 8 10 11 13 14 15 17 19 20
11 11 10 9 9 9 10 11 13 13 14 15 16 17 17 17 18 18 19 19 18 18 17 16 14 13 12 11 10 8 7 6 6 6 8 9 11 12 13 13 15 16 18
12 11 11 10 10 10 10 11 13 13 14 15 16 16 16 17 17 18 18 18 18 18 17 16 15 14 13 12 11 9 7 6 5 6 7 8 10 11 11 12 13 14 15
12 12 12 11 11 11 11 12 13 13 14 15 15 16 16 16 16 17 17 18 17 17 17 17 16 15 13 13 12 10 8 6 6 6 6 7 8 9 10 11 12 13 14
14 13 13 13 12 12 12 12 13 13 14 14 15 16 16 16 16 16 16 17 17 17 16 16 16 15 14 13 12 11 9 7 7 6 5 5 6 7 9 10 11 12 14
15 15 14 14 14 14 14 13 13 14 14 14 15 15 16 16 16 15 16 15 16 16 16 16 16 15 14 13 12 11 10 9 8 6 5 5 6 7 8 10 11 12 13
16 16 15 15 15 16 15 15 15 14 14 14 15 15 15 15 15 15 15 15 15 15 15 15 15 15 14 13 12 11 10 10 9 8 6 6 6 7 9 10 11 12 13
17 17 17 16 16 17 17 17 16 15 15 15 15 15 15 15 15 15 15 15 14 14 15 15 15 15 14 14 13 12 11 10 10 9 8 7 7 8 9 10 11 12 13
18 18 18 18 18 18 18 18 17 17 16 16 16 15 15 15 15 15 15 15 15 14 14 14 14 14 14 14 13 13 12 12 11 11 10 9 9 8 9 10 11 12 13
20 20 20 20 19 19 19 19 19 18 18 17 17 16 16 16 16 16 16 15 15 15 14 14 14 14 14 14 14 13 13 12 12 12 11 11 10 10 9 10 11 12 13
22 22 22 22 21 21 21 21 21 20 19 19 19 18 17 17 17 17 16 16 16 15 15 15 14 14 14 14 14 14 14 14 13 13 12 12 11 10 10 10 11 12 13
25 25 24 24 24 24 23 23 23 22 21 21 20 20 19 19 18 18 18 18 17 17 16 16 16 15 15 15 15 15 15 15 15 14 14 13 13 12 12 12 12 12 13
27 27 27 26 26 26 26 25 25 24 24 23 23 22 21 21 20 20 20 19 19 18 18 17 17 17 17 17 16 16 16 16 16 16 15 15 15 14 14 14 13 14 14
29 29 29 29 28 28 28 27 27 26 26 25 25 24 23 23 22 22 21 21 20 20 19 19 19 18 18 18 18 18 18 18 18 18 17 16 16 16 16 16 15 15 15
31 31 31 31 30 30 30 30 29 29 29 28 27 27 26 25 25 24 23 23 23 22 22 21 21 20 20 19 19 19 19 19 19 19 19 18 18 17 17 17 17 17 18
34 33 33 33 32 32 32 32 32 32 31 30 30 29 28 28 27 26 26 25 25 24 24 24 23 22 22 21 21 21 21 21 20 20 20 20 20 20 19 19 19 20 20
37 36 35 35 35 35 34 34 34 34 33 33 32 32 31 30 29 29 28 28 27 27 26 26 25 25 24 24 23 23 22 22 22 22 22 22 21 21 22 22 22 22 22
Wind_Direction
297 306 315 321 329 335 337 339 341 341 341 341 342 343 344 344 343 342 341 339 338 335 329 320 310 301 292 280 265 255 249 243 239 237 236 234 233 231 229 225 222 223 223
293 302 312 319 326 333 337 338 339 340 342 343 343 344 345 345 345 344 342 342 341 338 334 328 320 309 296 282 268 258 251 245 239 237 235 233 231 231 229 226 225 225 223
288 293 305 315 322 331 335 337 338 339 341 343 344 345 346 347 347 346 345 344 343 340 338 333 328 318 304 287 276 261 253 245 240 237 234 232 230 231 231 229 228 226 224
287 293 300 308 317 326 332 334 336 338 340 343 344 346 346 348 348 348 347 346 346 344 341 338 334 327 314 297 284 269 258 251 244 238 235 232 229 229 230 230 228 224 224
284 289 295 303 313 322 328 332 335 337 341 343 345 346 347 348 349 349 349 348 347 347 346 343 340 334 324 307 290 277 268 258 247 241 237 234 230 228 228 227 226 226 224
283 286 292 299 309 318 325 330 334 336 340 343 345 346 347 348 349 350 350 350 350 350 348 346 343 338 331 320 302 284 272 261 253 246 239 234 230 227 226 226 227 228 226
282 285 290 296 306 315 322 328 332 335 338 341 344 346 347 349 350 352 353 353 353 352 350 348 346 343 337 328 315 299 280 264 257 248 240 233 230 227 226 227 228 230 230
282 284 290 294 303 313 319 325 330 334 337 340 343 345 346 348 351 352 354 354 355 354 353 351 350 348 344 337 326 313 293 272 259 250 243 236 230 227 227 227 229 230 231
282 282 287 291 297 307 315 322 327 332 336 339 342 343 346 348 351 353 354 355 355 356 355 355 353 351 349 344 334 322 306 282 265 253 246 240 233 230 230 231 230 231 233
283 281 284 289 295 304 313 320 326 330 334 338 340 342 344 347 350 352 353 355 356 357 358 358 357 356 352 348 341 328 316 298 277 262 252 243 237 235 234 235 233 232 235
284 282 282 287 292 300 309 318 325 329 332 336 339 340 342 345 348 351 353 355 357 358 359 359 359 357 357 356 350 341 323 307 291 274 261 249 243 240 239 236 235 235 236
283 282 282 284 288 294 303 312 321 327 330 333 337 339 341 343 346 349 352 355 357 359 359 359 358 358 358 359 356 348 336 322 305 286 271 256 246 242 241 237 237 237 237
279 280 280 281 286 290 297 306 316 323 327 331 334 337 339 341 343 346 349 353 355 358 360 1 0 0 360 360 0 356 350 339 324 304 284 266 253 246 245 241 238 238 238
276 277 277 279 283 287 292 301 310 317 323 327 331 334 337 338 340 342 345 349 353 355 358 1 2 2 1 1 2 3 359 351 338 322 304 278 261 255 251 247 244 242 241
276 276 276 277 280 283 288 294 302 309 316 321 326 330 334 337 338 338 340 344 349 352 355 357 359 0 0 360 0 2 1 356 347 333 314 291 272 261 257 253 250 247 246
276 276 276 277 279 279 282 288 295 301 307 313 318 324 328 333 336 337 337 339 343 348 351 355 357 359 359 358 357 357 357 354 349 343 327 304 285 273 265 261 257 253 251
275 275 275 276 277 277 278 283 288 294 300 304 310 316 321 326 330 333 334 336 337 340 345 349 353 355 356 356 355 352 350 350 348 343 336 324 303 285 275 268 264 260 257
274 273 273 274 275 276 277 278 283 287 292 297 301 307 313 317 322 326 328 331 332 333 336 340 344 348 351 351 351 349 347 344 343 341 336 329 320 303 289 278 270 267 264
272 272 272 272 273 274 275 276 279 282 287 291 294 297 302 308 313 317 321 323 325 327 328 330 333 337 340 342 343 342 343 342 339 336 334 331 323 311 300 288 278 273 269
272 271 271 271 272 273 274 274 276 278 282 285 287 290 294 298 303 307 311 315 319 320 322 323 325 326 329 332 334 335 335 335 334 331 328 326 324 319 307 297 288 280 274
272 270 270 270 271 271 272 273 274 275 277 280 282 284 287 291 295 299 303 306 310 313 314 316 318 319 321 323 324 326 327 328 328 326 322 320 318 315 310 303 296 288 280
271 270 269 269 269 270 271 272 272 273 274 275 278 280 282 285 288 292 296 298 301 305 308 309 310 312 313 315 316 318 320 320 320 321 319 316 314 311 307 302 297 292 287
271 270 269 268 268 269 270 270 271 271 272 272 274 276 278 280 283 286 289 292 294 297 301 302 303 304 306 308 310 312 313 315 314 313 312 311 311 309 305 301 296 293 290
270 269 268 268 267 267 268 269 269 269 270 270 271 273 275 278 280 282 284 286 288 291 294 296 297 298 300 301 304 306 307 309 311 310 308 306 306 305 303 300 298 294 290
269 268 268 267 267 267 267 268 268 267 267 267 268 270 272 275 277 279 280 282 284 286 288 291 292 293 294 296 298 300 302 303 304 305 305 304 302 301 300 298 297 295 291
269 268 267 266 266 266 266 266 266 266 266 266 266 268 270 272 274 275 277 279 281 282 284 286 288 289 290 292 294 296 298 299 300 300 301 300 299 298 298 297 295 293 292
Height
5840 5840 5839 5838 5837 5836 5835 5833 5831 5829 5827 5824 5820 5817 5813 5809 5804 5800 5796 5792 5788 5785 5782 5779 5777 5775 5775 5774 5775 5776 5777 5779 5782 5785 5789 5792 5796 5800 5804 5808 5812 5816 5821
5839 5838 5838 5837 5836 5835 5834 5832 5830 5828 5826 5822 5819 5816 5812 5807 5803 5799 5795 5791 5787 5783 5780 5777 5775 5773 5772 5771 5771 5772 5774 5775 5778 5781 5784 5787 5792 5795 5799 5803 5807 5811 5816
5838 5837 5837 5836 5835 5834 5833 5831 5829 5827 5824 5821 5818 5814 5810 5806 5802 5798 5794 5790 5786 5782 5778 5775 5773 5771 5769 5769 5769 5769 5770 5772 5774 5776 5779 5783 5786 5790 5794 5798 5802 5806 5810
5836 5836 5836 5835 5834 5833 5832 5830 5828 5826 5823 5820 5817 5813 5810 5806 5801 5797 5793 5789 5785 5780 5777 5774 5771 5769 5767 5767 5766 5767 5768 5769 5770 5772 5775 5778 5782 5785 5789 5793 5797 5801 5805
5835 5835 5835 5834 5833 5832 5830 5829 5827 5825 5822 5819 5816 5812 5809 5805 5801 5796 5792 5788 5784 5780 5776 5772 5770 5768 5766 5765 5764 5765 5765 5766 5767 5769 5771 5774 5777 5780 5784 5788 5792 5796 5800
5834 5834 5833 5832 5831 5830 5829 5827 5826 5823 5821 5818 5815 5811 5808 5804 5800 5796 5792 5787 5783 5779 5775 5772 5769 5766 5765 5764 5763 5762 5763 5763 5764 5766 5767 5770 5772 5776 5780 5783 5787 5791 5795
5832 5832 5831 5831 5830 5829 5828 5826 5824 5822 5820 5817 5814 5810 5807 5803 5799 5795 5791 5787 5783 5779 5775 5771 5768 5766 5764 5762 5761 5761 5761 5761 5762 5763 5764 5766 5769 5772 5775 5779 5783 5787 5791
5830 5830 5830 5829 5828 5827 5826 5825 5823 5821 5818 5816 5813 5809 5806 5802 5799 5795 5791 5786 5782 5778 5775 5771 5768 5765 5763 5762 5760 5759 5759 5759 5760 5760 5762 5764 5766 5768 5771 5775 5779 5782 5786
5828 5828 5828 5827 5827 5826 5825 5823 5822 5819 5817 5814 5812 5808 5805 5802 5798 5794 5790 5786 5782 5778 5774 5771 5768 5765 5763 5761 5760 5758 5757 5757 5758 5759 5760 5761 5763 5765 5768 5771 5774 5778 5781
5826 5826 5826 5825 5825 5824 5823 5822 5820 5818 5816 5813 5810 5807 5804 5801 5797 5794 5790 5786 5782 5778 5774 5771 5768 5765 5763 5760 5759 5757 5756 5756 5756 5757 5758 5759 5760 5762 5765 5768 5770 5773 5776
5824 5824 5824 5823 5823 5822 5821 5820 5818 5816 5814 5812 5809 5806 5803 5800 5797 5793 5790 5786 5782 5778 5775 5771 5768 5765 5763 5760 5758 5756 5755 5755 5755 5755 5756 5757 5758 5760 5762 5764 5767 5769 5772
5822 5821 5821 5821 5821 5820 5819 5818 5817 5815 5813 5810 5808 5805 5802 5799 5796 5793 5789 5786 5782 5779 5775 5772 5768 5766 5763 5760 5758 5756 5755 5754 5754 5754 5754 5755 5756 5757 5759 5761 5763 5766 5768
5819 5819 5819 5818 5818 5818 5817 5816 5815 5813 5811 5809 5806 5804 5801 5798 5795 5792 5789 5785 5782 5779 5775 5772 5769 5766 5763 5761 5758 5756 5754 5754 5753 5753 5753 5753 5754 5755 5757 5759 5761 5763 5765
5816 5816 5816 5815 5815 5815 5814 5814 5812 5811 5809 5807 5805 5802 5800 5797 5794 5791 5788 5785 5782 5779 5776 5773 5769 5766 5764 5761 5759 5757 5755 5754 5753 5752 5752 5752 5753 5753 5755 5756 5758 5759 5761
5813 5813 5813 5812 5812 5812 5811 5811 5810 5808 5807 5805 5803 5801 5798 5795 5793 5790 5787 5784 5782 5779 5776 5773 5770 5767 5764 5762 5759 5757 5756 5754 5753 5752 5751 5751 5751 5752 5753 5754 5755 5756 5757
5809 5809 5809 5809 5809 5808 5808 5807 5807 5805 5804 5802 5801 5799 5796 5794 5791 5789 5786 5784 5781 5778 5775 5773 5770 5767 5764 5762 5760 5758 5756 5754 5753 5752 5750 5750 5750 5750 5750 5751 5752 5753 5754
5805 5805 5805 5805 5804 5804 5804 5804 5803 5802 5801 5799 5798 5796 5794 5792 5790 5787 5785 5782 5780 5777 5775 5772 5770 5767 5764 5762 5760 5758 5756 5754 5753 5751 5750 5749 5748 5748 5748 5748 5749 5750 5750
5801 5800 5800 5800 5800 5800 5800 5799 5799 5798 5797 5796 5795 5793 5791 5789 5787 5785 5783 5781 5778 5776 5774 5771 5769 5767 5764 5762 5759 5757 5755 5754 5752 5750 5749 5748 5747 5746 5746 5746 5746 5746 5747
5796 5795 5795 5795 5795 5795 5794 5794 5794 5793 5793 5792 5791 5789 5788 5786 5784 5783 5781 5778 5776 5774 5772 5770 5768 5766 5763 5761 5759 5756 5754 5753 5751 5749 5747 5746 5745 5744 5743 5743 5743 5743 5743
5790 5790 5790 5789 5789 5789 5789 5789 5788 5788 5788 5787 5786 5785 5784 5782 5781 5779 5778 5776 5774 5772 5770 5768 5766 5764 5762 5759 5757 5755 5753 5751 5749 5748 5746 5744 5743 5742 5741 5740 5740 5740 5740
5784 5784 5784 5783 5783 5783 5783 5782 5782 5782 5782 5781 5781 5780 5779 5778 5777 5775 5774 5772 5770 5769 5767 5765 5763 5761 5759 5757 5755 5753 5751 5749 5747 5745 5744 5742 5740 5739 5738 5737 5737 5736 5736
5777 5776 5776 5777 5776 5776 5776 5776 5776 5776 5775 5775 5774 5774 5773 5773 5772 5770 5769 5768 5766 5765 5763 5762 5760 5758 5756 5754 5752 5750 5748 5746 5745 5743 5741 5739 5737 5736 5735 5734 5733 5732 5732
5769 5769 5769 5769 5769 5769 5768 5768 5768 5768 5768 5768 5768 5767 5767 5766 5766 5765 5764 5763 5761 5760 5759 5757 5756 5754 5752 5750 5748 5746 5745 5743 5741 5739 5737 5736 5734 5732 5731 5730 5729 5728 5728
5760 5760 5760 5760 5760 5760 5760 5760 5760 5760 5760 5760 5760 5760 5760 5760 5759 5758 5757 5757 5756 5755 5753 5752 5751 5749 5748 5746 5744 5742 5740 5739 5737 5735 5733 5731 5730 5728 5727 5726 5724 5723 5723
5750 5750 5750 5750 5751 5751 5751 5751 5751 5751 5751 5751 5752 5752 5752 5752 5751 5751 5750 5750 5749 5748 5747 5746 5745 5743 5742 5740 5739 5737 5736 5734 5732 5730 5728 5727 5725 5724 5722 5721 5719 5718 5717
5738 5739 5739 5740 5740 5740 5741 5741 5741 5741 5741 5741 5742 5743 5743 5743 5743 5743 5742 5742 5741 5740 5740 5739 5738 5736 5735 5734 5733 5731 5729 5728 5726 5725 5723 5721 5720 5718 5717 5715 5714 5712 5711